| time (UTC) | temp F | wind direction | speed MPH | gust MPH | rain 1hr in | rain 24hr in | rain mn in | humidity % | barometer mb |
| 20260507223031 | 58 | 294 | 0.0 | 2.0 | 0.00 | 0.00 | 0.00 | 57 | 1011.3 |
| 20260507221552 | 57 | 306 | 0.0 | 3.0 | 0.00 | 0.00 | 0.00 | 57 | 1011.1 |
| 20260507220110 | 57 | 309 | 0.0 | 1.0 | 0.00 | 0.00 | 0.00 | 55 | 1011.1 |
| 20260507214505 | 57 | 309 | 0.0 | 1.0 | 0.00 | 0.00 | 0.00 | 61 | 1010.9 |
| 20260507213032 | 56 | 316 | 0.0 | 3.0 | 0.00 | 0.00 | 0.00 | 68 | 1011.0 |
| 20260507211545 | 58 | 312 | 2.0 | 7.0 | 0.00 | 0.00 | 0.00 | 50 | 1010.9 |
| 20260507210109 | 60 | 308 | 1.0 | 5.0 | 0.00 | 0.00 | 0.00 | 47 | 1010.7 |
| 20260507204507 | 62 | 254 | 1.0 | 4.0 | 0.00 | 0.00 | 0.00 | 48 | 1010.7 |
| 20260507203033 | 63 | 225 | 0.0 | 4.0 | 0.00 | 0.00 | 0.00 | 48 | 1010.8 |
| 20260507201553 | 61 | 324 | 1.0 | 5.0 | 0.00 | 0.00 | 0.00 | 49 | 1010.9 |
| 20260507200111 | 61 | 268 | 0.0 | 4.0 | 0.00 | 0.00 | 0.00 | 53 | 1011.2 |
| 20260507194507 | 63 | 231 | 1.0 | 6.0 | 0.00 | 0.00 | 0.00 | 49 | 1011.5 |
| 20260507193031 | 62 | 200 | 1.0 | 5.0 | 0.00 | 0.00 | 0.00 | 50 | 1011.8 |
| 20260507191545 | 62 | 222 | 3.0 | 6.0 | 0.00 | 0.00 | 0.00 | 50 | 1012.1 |
| 20260507190059 | 60 | 202 | 3.0 | 6.0 | 0.00 | 0.00 | 0.00 | 54 | 1012.3 |
| 20260507184552 | 60 | 248 | 4.0 | 8.0 | 0.00 | 0.00 | 0.00 | 52 | 1012.5 |
| 20260507183016 | 61 | 188 | 4.0 | 10.0 | 0.00 | 0.00 | 0.00 | 50 | 1012.7 |
| 20260507181524 | 60 | 238 | 3.0 | 7.0 | 0.00 | 0.00 | 0.00 | 52 | 1013.0 |
| 20260507180051 | 59 | 224 | 1.0 | 8.0 | 0.00 | 0.00 | 0.00 | 48 | 1013.1 |
| 20260507174547 | 58 | 236 | 2.0 | 6.0 | 0.00 | 0.00 | 0.00 | 47 | 1013.1 |
| 20260507173006 | 58 | 273 | 0.0 | 4.0 | 0.00 | 0.00 | 0.00 | 47 | 1013.3 |
| 20260507171524 | 59 | 245 | 1.0 | 6.0 | 0.00 | 0.00 | 0.00 | 48 | 1013.6 |
| 20260507170052 | 59 | 256 | 1.0 | 7.0 | 0.00 | 0.00 | 0.00 | 44 | 1013.9 |
| 20260507164544 | 58 | 207 | 2.0 | 6.0 | 0.00 | 0.00 | 0.00 | 44 | 1014.2 |
| 20260507163004 | 57 | 236 | 1.0 | 6.0 | 0.00 | 0.00 | 0.00 | 44 | 1014.6 |
| 20260507161527 | 58 | 202 | 1.0 | 8.0 | 0.00 | 0.00 | 0.00 | 43 | 1014.6 |
| 20260507160042 | 57 | 218 | 0.0 | 7.0 | 0.00 | 0.00 | 0.00 | 45 | 1014.8 |
| 20260507154535 | 57 | 209 | 0.0 | 4.0 | 0.00 | 0.00 | 0.00 | 47 | 1015.1 |
| 20260507153051 | 56 | 233 | 1.0 | 4.0 | 0.00 | 0.00 | 0.00 | 45 | 1015.3 |
| 20260507151506 | 55 | 206 | 0.0 | 4.0 | 0.00 | 0.00 | 0.00 | 44 | 1015.4 |
| 20260507150120 | 54 | 191 | 0.0 | 2.0 | 0.00 | 0.00 | 0.00 | 46 | 1015.6 |
| 20260507144510 | 53 | 267 | 0.0 | 1.0 | 0.00 | 0.00 | 0.00 | 51 | 1016.0 |
| 20260507143034 | 52 | 224 | 0.0 | 1.0 | 0.00 | 0.00 | 0.00 | 52 | 1016.3 |
| 20260507141541 | 51 | 256 | 0.0 | 1.0 | 0.00 | 0.00 | 0.00 | 53 | 1016.5 |
| 20260507140107 | 49 | 262 | 0.0 | 1.0 | 0.00 | 0.00 | 0.00 | 59 | 1016.6 |
| 20260507134557 | 48 | 224 | 0.0 | 1.0 | 0.00 | 0.00 | 0.00 | 57 | 1016.6 |
| 20260507133017 | 46 | 248 | 0.0 | 1.0 | 0.00 | 0.00 | 0.00 | 62 | 1016.7 |
| 20260507131548 | 45 | 194 | 0.0 | 1.0 | 0.00 | 0.00 | 0.00 | 62 | 1016.6 |
| 20260507130105 | 43 | 221 | 0.0 | 1.0 | 0.00 | 0.00 | 0.00 | 67 | 1016.8 |
| 20260507124548 | 41 | 221 | 0.0 | 1.0 | 0.00 | 0.00 | 0.00 | 72 | 1017.1 |
| 20260507123057 | 39 | 306 | 0.0 | 0.0 | 0.00 | 0.00 | 0.00 | 77 | 1016.9 |
| 20260507121513 | 36 | 304 | 0.0 | 0.0 | 0.00 | 0.00 | 0.00 | 85 | 1016.7 |
| 20260507120120 | 35 | 304 | 0.0 | 0.0 | 0.00 | 0.00 | 0.00 | 88 | 1016.5 |
| 20260507114524 | 33 | 304 | 0.0 | 0.0 | 0.00 | 0.00 | 0.00 | 89 | 1016.4 |
| 20260507113040 | 32 | 304 | 0.0 | 0.0 | 0.00 | 0.00 | 0.00 | 87 | 1016.3 |
| 20260507111508 | 31 | 304 | 0.0 | 0.0 | 0.00 | 0.00 | 0.00 | 88 | 1016.3 |
| 20260507110003 | 31 | 304 | 0.0 | 0.0 | 0.00 | 0.00 | 0.00 | 88 | 1016.3 |
| 20260507104529 | 31 | 304 | 0.0 | 0.0 | 0.00 | 0.00 | 0.00 | 87 | 1016.3 |
| 20260507103045 | 31 | 304 | 0.0 | 0.0 | 0.00 | 0.00 | 0.00 | 87 | 1016.3 |
| 20260507101513 | 30 | 304 | 0.0 | 0.0 | 0.00 | 0.00 | 0.00 | 88 | 1016.3 |
| 20260507100009 | 30 | 304 | 0.0 | 0.0 | 0.00 | 0.00 | 0.00 | 86 | 1016.4 |
| 20260507094537 | 30 | 304 | 0.0 | 0.0 | 0.00 | 0.00 | 0.00 | 86 | 1016.5 |
| 20260507093054 | 31 | 304 | 0.0 | 0.0 | 0.00 | 0.00 | 0.00 | 85 | 1016.5 |
| 20260507091508 | 31 | 304 | 0.0 | 0.0 | 0.00 | 0.00 | 0.00 | 83 | 1016.5 |
| 20260507090125 | 33 | 304 | 0.0 | 0.0 | 0.00 | 0.00 | 0.00 | 82 | 1016.5 |
| 20260507084518 | 34 | 304 | 0.0 | 0.0 | 0.00 | 0.00 | 0.00 | 80 | 1016.5 |
| 20260507083044 | 33 | 304 | 0.0 | 0.0 | 0.00 | 0.00 | 0.00 | 81 | 1016.4 |
| 20260507081525 | 34 | 304 | 0.0 | 0.0 | 0.00 | 0.00 | 0.00 | 82 | 1016.4 |
| 20260507080037 | 34 | 304 | 0.0 | 0.0 | 0.00 | 0.00 | 0.00 | 83 | 1016.5 |
| 20260507074549 | 34 | 304 | 0.0 | 0.0 | 0.00 | 0.00 | 0.00 | 82 | 1016.6 |
| 20260507073052 | 34 | 304 | 0.0 | 0.0 | 0.00 | 0.00 | 0.00 | 81 | 1016.6 |
| 20260507071514 | 34 | 304 | 0.0 | 0.0 | 0.00 | 0.00 | 0.00 | 82 | 1016.7 |
| 20260507070014 | 34 | 304 | 0.0 | 0.0 | 0.00 | 0.00 | 0.00 | 83 | 1016.8 |
| 20260507064528 | 34 | 304 | 0.0 | 0.0 | 0.00 | 0.00 | 0.00 | 83 | 1016.8 |
| 20260507063056 | 34 | 304 | 0.0 | 0.0 | 0.00 | 0.00 | 0.00 | 83 | 1016.9 |
| 20260507061517 | 34 | 304 | 0.0 | 0.0 | 0.00 | 0.00 | 0.00 | 82 | 1017.0 |
| 20260507060044 | 34 | 304 | 0.0 | 0.0 | 0.00 | 0.00 | 0.00 | 81 | 1017.0 |
| 20260507054616 | 34 | 304 | 0.0 | 0.0 | 0.00 | 0.00 | 0.00 | 82 | 1017.0 |
| 20260507053101 | 33 | 304 | 0.0 | 0.0 | 0.00 | 0.00 | 0.00 | 82 | 1016.9 |
| 20260507051522 | 34 | 304 | 0.0 | 0.0 | 0.00 | 0.00 | 0.00 | 80 | 1016.8 |
| 20260507050128 | 35 | 304 | 0.0 | 0.0 | 0.00 | 0.00 | 0.00 | 79 | 1016.9 |
| 20260507044516 | 36 | 304 | 0.0 | 0.0 | 0.00 | 0.00 | 0.00 | 77 | 1016.8 |
| 20260507043044 | 36 | 304 | 0.0 | 0.0 | 0.00 | 0.00 | 0.00 | 74 | 1016.8 |
| 20260507041601 | 37 | 304 | 0.0 | 0.0 | 0.00 | 0.00 | 0.00 | 71 | 1016.9 |
| 20260507040118 | 38 | 304 | 0.0 | 0.0 | 0.00 | 0.00 | 0.00 | 71 | 1016.7 |
| 20260507034513 | 39 | 304 | 0.0 | 0.0 | 0.00 | 0.00 | 0.00 | 70 | 1016.7 |
| 20260507033037 | 39 | 304 | 0.0 | 0.0 | 0.00 | 0.00 | 0.00 | 68 | 1016.8 |
| 20260507031502 | 40 | 304 | 0.0 | 0.0 | 0.00 | 0.00 | 0.00 | 69 | 1016.8 |
| 20260507030123 | 41 | 304 | 0.0 | 0.0 | 0.00 | 0.00 | 0.00 | 69 | 1016.8 |
| 20260507024524 | 42 | 304 | 0.0 | 0.0 | 0.00 | 0.00 | 0.00 | 68 | 1016.6 |
| 20260507023029 | 42 | 304 | 0.0 | 0.0 | 0.00 | 0.00 | 0.00 | 66 | 1016.5 |
| 20260507021557 | 43 | 304 | 0.0 | 0.0 | 0.00 | 0.00 | 0.00 | 62 | 1016.3 |
| 20260507020116 | 43 | 306 | 0.0 | 0.0 | 0.00 | 0.00 | 0.00 | 60 | 1016.1 |
| 20260507014530 | 44 | 304 | 0.0 | 1.0 | 0.00 | 0.00 | 0.00 | 57 | 1016.1 |
| 20260507013032 | 44 | 305 | 0.0 | 1.0 | 0.00 | 0.00 | 0.00 | 57 | 1016.0 |
| 20260507011601 | 45 | 305 | 0.0 | 1.0 | 0.00 | 0.00 | 0.00 | 54 | 1015.9 |
| 20260507010119 | 46 | 305 | 0.0 | 1.0 | 0.00 | 0.00 | 0.00 | 52 | 1015.9 |
| 20260507004516 | 47 | 312 | 0.0 | 2.0 | 0.00 | 0.00 | 0.00 | 50 | 1015.8 |
| 20260507003033 | 48 | 332 | 0.0 | 3.0 | 0.00 | 0.00 | 0.00 | 49 | 1015.8 |
| 20260507001557 | 49 | 306 | 0.0 | 4.0 | 0.00 | 0.00 | 0.00 | 49 | 1015.7 |
| 20260507000111 | 50 | 300 | 1.0 | 5.0 | 0.00 | 0.00 | 0.00 | 48 | 1015.4 |
| 20260506234557 | 51 | 306 | 0.0 | 4.0 | 0.00 | 0.00 | 0.00 | 49 | 1015.4 |
| 20260506233017 | 51 | 305 | 1.0 | 7.0 | 0.00 | 0.00 | 0.00 | 48 | 1015.3 |
| 20260506231534 | 52 | 307 | 0.0 | 11.0 | 0.00 | 0.00 | 0.00 | 46 | 1015.2 |
| 20260506230056 | 52 | 322 | 0.0 | 5.0 | 0.00 | 0.00 | 0.00 | 46 | 1015.0 |
| 20260506224550 | 53 | 279 | 1.0 | 6.0 | 0.00 | 0.00 | 0.00 | 44 | 1014.9 |